Location: 3 Angels Observatory
(30.5437°N, 88.5068°W)
Time: 21:46:11
(UTC-05:00)

Amateur Radio Satellites - All Passes

Search period start: 25 May 2016 21:16
Search period end: 26 May 2016 21:16
Location: 3 Angels Observatory, 30.5437°N, 88.5068°W

Satellite Date Start Highest point End Downlink Frequencies (MHz)
Time Altitude Azimuth
ISS 25 May 21:18:49 21:21:57 49° 132° (SE) 21:25:07 145.825
PHONESAT 2.4 25 May 21:22:46 21:25:03 19° 142° (SE) 21:27:22 2401.200-2431.200
DELFI C3 25 May 21:23:45 21:27:02 26° 73° (ENE) 21:30:21 145.870
Oscar 11 25 May 21:30:32 21:34:48 81° 77° (ENE) 21:39:07 145.826/435.025
BEESAT 3 25 May 21:31:02 21:34:55 58° 61° (ENE) 21:38:47 437.485
CUBEBUG 2 25 May 21:36:32 21:40:44 39° 261° (W) 21:44:51 437.445
CUTE 1.7 + AOD 2 25 May 21:39:03 21:40:05 11° 267° (W) 21:41:06 437.475
ZACube-1 25 May 21:40:29 21:44:48 86° 259° (W) 21:49:01 437.345
AIST 1 25 May 22:03:13 22:07:24 45° 278° (W) 22:11:39
HUMSAT D 25 May 22:07:56 22:11:45 39° 75° (ENE) 22:15:34 437.325/437.525
Cosmos 2499 25 May 22:09:24 22:15:39 34° 87° (E) 22:22:12 435.465 / 435.565
UWE-3 25 May 22:10:31 22:14:00 23° 263° (W) 22:17:26 435.000/436.395/437.385
AAUSAT CUBESAT 2 25 May 22:13:54 22:14:24 10° 267° (W) 22:14:53 437.432
FUNcube-1 25 May 22:20:28 22:24:11 28° 262° (W) 22:27:49 145.935
PRISM 25 May 22:24:16 22:26:22 14° 292° (WNW) 22:28:30 437.425
DANDE 25 May 22:29:20 22:34:00 16° 66° (ENE) 22:38:26 436.750
BEESAT 2 25 May 22:29:39 22:33:29 46° 246° (WSW) 22:37:16 435.950
GONETS M04 25 May 22:39:42 22:48:31 77° 276° (W) 22:57:19
UNISAT 6 25 May 22:43:38 22:47:34 34° 99° (E) 22:51:33 437.425
AIST 2 25 May 22:45:32 22:47:08 12° 52° (NE) 22:48:44 435.215
ESTCUBE 1 25 May 22:50:25 22:53:52 22° 71° (ENE) 22:57:20 437.505/2401.250
TIGRISAT 25 May 22:51:49 22:55:52 41° 99° (E) 23:00:00 435.000
CUSAT 1 25 May 22:53:40 23:00:54 45° 76° (ENE) 23:06:54 437.405
ISS 25 May 22:56:58 22:58:36 13° 326° (NW) 23:00:14 145.825
PHONESAT 2.4 25 May 22:58:35 23:01:38 48° 335° (NNW) 23:04:41 2401.200-2431.200
DELFI C3 25 May 22:59:24 23:01:51 16° 265° (W) 23:04:19 145.870
NANOSAT C BR1 25 May 23:16:40 23:17:50 11° 94° (E) 23:18:59 145.865
CUBEBUG 1 25 May 23:19:27 23:23:22 32° 73° (ENE) 23:27:19 437.445
VELOX 1 25 May 23:20:47 23:24:46 33° 73° (ENE) 23:28:45 145.980
DX 1 25 May 23:22:53 23:26:39 29° 72° (ENE) 23:30:25 434.975-435.025
ANTELSAT 25 May 23:24:38 23:28:55 70° 284° (WNW) 23:33:16 437.575/2403.000
HUMSAT D 25 May 23:46:23 23:47:29 11° 266° (W) 23:48:36 437.325/437.525
SO-50 25 May 23:52:41 23:56:26 22° 110° (ESE) 00:00:12 436.795
DUCHIFAT 1 25 May 23:53:55 23:57:40 32° 98° (E) 00:01:25 145.980
AISAT 25 May 23:56:02 00:00:30 85° 256° (WSW) 00:05:00 437.250
SPROUT 25 May 23:56:08 23:59:53 30° 73° (ENE) 00:03:38 437.525
Cosmos 2499 26 May 00:02:22 00:08:36 32° 284° (WNW) 00:15:11 435.465 / 435.565
50 SAT 26 May 00:07:43 00:11:12 45° 261° (W) 00:14:42 437.505
DANDE 26 May 00:09:27 00:17:56 90° 264° (W) 00:25:20 436.750
UKube-1 26 May 00:15:22 00:19:41 78° 259° (WSW) 00:24:02 .
BUGSAT 1 26 May 00:20:54 00:24:26 29° 98° (E) 00:27:55 437.445
UNISAT 6 26 May 00:21:32 00:23:58 15° 291° (WNW) 00:26:26 437.425
AIST 2 26 May 00:21:51 00:25:51 49° 247° (WSW) 00:29:51 435.215
ESTCUBE 1 26 May 00:26:47 00:30:30 25° 263° (W) 00:34:14 437.505/2401.250
TISAT 1 26 May 00:28:48 00:31:43 18° 70° (ENE) 00:34:38 437.305
POPSAT HIP 1 26 May 00:29:19 00:33:29 75° 284° (WNW) 00:37:40 437.405
QB50P1 26 May 00:29:56 00:34:07 72° 283° (WNW) 00:38:16 145.935-145.965
TIGRISAT 26 May 00:30:19 00:32:11 13° 291° (WNW) 00:34:04 435.000
QB50P2 26 May 00:31:30 00:35:40 64° 284° (WNW) 00:39:49 145.880/145.840
POLYITAN 1 26 May 00:33:57 00:38:06 63° 284° (WNW) 00:42:14 437.675
CUSAT 1 26 May 00:36:32 00:42:29 26° 275° (W) 00:47:37 437.405
PHONESAT 2.4 26 May 00:36:51 00:38:51 16° 350° (N) 00:40:51 2401.200-2431.200
JAS-2 26 May 00:41:07 00:46:40 23° 92° (E) 00:51:45 435.910
GONETS M04 26 May 00:44:46 00:46:37 11° 293° (WNW) 00:48:28
RS-15 26 May 00:47:30 00:54:38 17° 33° (NNE) 01:01:46 29.354- 29.394
NANOSAT C BR1 26 May 00:49:45 00:53:41 41° 286° (WNW) 00:57:37 145.865
CUBEBUG 1 26 May 00:56:49 00:59:39 17° 265° (W) 01:02:30 437.445
VELOX 1 26 May 00:58:24 01:01:14 17° 265° (W) 01:04:05 145.980
DX 1 26 May 00:59:46 01:02:47 18° 264° (W) 01:05:49 434.975-435.025
DUCHIFAT 1 26 May 01:30:43 01:33:03 15° 291° (WNW) 01:35:23 145.980
SO-50 26 May 01:32:18 01:36:42 33° 303° (WNW) 01:41:08 436.795
SPROUT 26 May 01:33:03 01:35:49 17° 265° (W) 01:38:34 437.525
SWISSCUBE 26 May 01:48:27 01:52:35 31° 71° (ENE) 01:56:44 437.505
ITUPSAT 1 26 May 01:53:31 01:57:39 31° 72° (ENE) 02:01:48 437.325
DANDE 26 May 01:55:30 01:59:26 14° 280° (W) 02:03:10 436.750
BUGSAT 1 26 May 01:57:13 01:59:31 15° 291° (WNW) 02:01:49 437.445
TISAT 1 26 May 02:03:32 02:07:08 27° 262° (W) 02:10:44 437.305
PHONESAT 2.4 26 May 02:14:34 02:16:24 14° 7° (N) 02:18:14 2401.200-2431.200
Oscar 19 26 May 02:16:33 02:21:43 79° 103° (ESE) 02:26:51 437.125/150
BEESAT 26 May 02:17:48 02:22:27 60° 75° (ENE) 02:27:09 436.000
Gurwin Techsat 1B 26 May 02:23:50 02:28:40 35° 98° (E) 02:33:28 435.225
JAS-2 26 May 02:24:54 02:31:58 50° 289° (WNW) 02:38:16 435.910
ITAMSAT 1 26 May 02:54:32 02:58:47 25° 97° (E) 03:03:01 435.822/435.867
RS-15 26 May 02:58:05 03:10:19 62° 59° (ENE) 03:22:20 29.354- 29.394
YUBILEINY 26 May 03:07:45 03:15:34 35° 77° (ENE) 03:23:19 435.215
SWISSCUBE 26 May 03:26:53 03:30:20 20° 264° (W) 03:33:48 437.505
ITUPSAT 1 26 May 03:31:58 03:35:27 20° 264° (W) 03:38:56 437.325
KKS-1 26 May 03:44:19 03:48:43 60° 75° (ENE) 03:53:07 437.445
MOZHAYETS 4 26 May 03:46:08 03:50:25 42° 74° (ENE) 03:54:43
AO-7 26 May 03:48:19 03:55:44 34° 100° (E) 04:03:05 29.400- 29.500
PHONESAT 2.4 26 May 03:50:46 03:53:42 37° 24° (NNE) 03:56:37 2401.200-2431.200
Cosmos 2491 26 May 03:54:19 04:02:34 46° 89° (E) 04:10:48 435.465 / 435.565
Gurwin Techsat 1B 26 May 04:04:18 04:08:20 22° 291° (WNW) 04:12:22 435.225
STARS 26 May 04:25:06 04:29:31 89° 89° (E) 04:33:57 437.465
ITAMSAT 1 26 May 04:33:40 04:38:09 30° 290° (WNW) 04:42:38 435.822/435.867
YUBILEINY 26 May 05:04:17 05:12:15 41° 272° (W) 05:20:15 435.215
CUBESAT XI-V 26 May 05:06:32 05:10:41 33° 73° (ENE) 05:14:52 437.345
HORYU 2 26 May 05:07:49 05:11:52 34° 99° (E) 05:15:54 437.375
RS-15 26 May 05:11:40 05:22:01 34° 256° (WSW) 05:32:17 29.354- 29.394
Cosmos 2504 26 May 05:18:06 05:26:37 72° 83° (E) 05:35:28 435.465 / 435.565
AO-85 26 May 05:18:10 05:22:10 21° 108° (ESE) 05:26:11 145.980
MOZHAYETS 4 26 May 05:25:37 05:27:42 13° 266° (W) 05:29:49
ISS 26 May 05:27:03 05:30:13 47° 43° (NE) 05:33:21 145.825
PHONESAT 2.4 26 May 05:27:41 05:30:21 26° 216° (SW) 05:33:00 2401.200-2431.200
AO-7 26 May 05:40:41 05:48:26 44° 294° (WNW) 05:56:10 29.400- 29.500
Cosmos 2491 26 May 05:51:52 05:59:25 31° 284° (WNW) 06:07:03 435.465 / 435.565
JUGNU 26 May 05:54:30 05:58:17 17° 164° (SSE) 06:02:03 437.505
CUTE-I 26 May 05:57:18 05:59:39 13° 93° (E) 06:02:00 437.470
BRITE-PL 26 May 06:18:41 06:22:45 25° 94° (E) 06:26:33 437.365/2234.400
NOAA 18 26 May 06:32:01 06:37:08 39° 100° (E) 06:42:13 137.9125
CUBESAT XI-V 26 May 06:44:57 06:48:04 18° 265° (W) 06:51:13 437.345
HORYU 2 26 May 06:45:23 06:48:05 16° 291° (WNW) 06:50:48 437.375
Cubesat XI-IV 26 May 06:47:55 06:53:03 46° 100° (E) 06:58:11 437.490
NOAA 15 26 May 06:49:24 06:54:43 74° 103° (ESE) 06:59:57 137.62
GOMX 1 26 May 06:52:29 06:56:09 23° 95° (E) 06:59:38 467.674
AO-85 26 May 06:57:14 07:02:22 42° 301° (WNW) 07:07:30 145.980
LilacSat-2 26 May 07:10:51 07:14:39 87° 283° (WNW) 07:18:26 437.200
Cosmos 2504 26 May 07:13:40 07:19:10 19° 277° (W) 07:24:49 435.465 / 435.565
STRAND 1 26 May 07:19:19 07:24:21 70° 75° (ENE) 07:29:26 437.568
PRISM 26 May 07:33:28 07:35:15 13° 68° (ENE) 07:37:02 437.425
CUTE-I 26 May 07:34:42 07:39:56 58° 286° (WNW) 07:45:11 437.470
JUGNU 26 May 07:41:47 07:46:46 27° 174° (S) 07:51:43 437.505
SRMSAT 26 May 07:45:10 07:48:22 15° 163° (SSE) 07:51:34 437.500
DOVE 4 26 May 07:49:23 07:53:34 47° 99° (E) 07:57:35 437.250
CUTE 1.7 + AOD 2 26 May 07:52:41 07:54:13 12° 93° (E) 07:55:43 437.475
BRITE-PL 26 May 07:57:00 08:01:06 26° 290° (WNW) 08:04:57 437.365/2234.400
AUBIESAT-1 26 May 08:09:52 08:11:54 15° 101° (E) 08:13:57 437.475
NOAA 18 26 May 08:13:25 08:17:27 21° 293° (WNW) 08:21:30 137.9125
M-CUBED/EXP-1 PRIME 26 May 08:14:29 08:17:08 23° 103° (ESE) 08:19:48 437.505
AIST 1 26 May 08:16:29 08:20:02 24° 78° (ENE) 08:23:32
COMPASS 1 26 May 08:20:22 08:22:04 12° 94° (E) 08:23:47 437.405
AAUSAT CUBESAT 2 26 May 08:25:24 08:26:14 10° 93° (E) 08:27:05 437.432
Cubesat XI-IV 26 May 08:29:16 08:32:42 18° 293° (WNW) 08:36:09 437.490
GOMX 1 26 May 08:30:31 08:34:05 22° 290° (WNW) 08:37:30 467.674
CINEMA 3 26 May 08:32:15 08:36:08 39° 99° (E) 08:40:01 145.822/145.860
NOAA 15 26 May 08:32:39 08:33:46 11° 296° (WNW) 08:34:54 137.62
O/OREOS (USA 219) 26 May 08:47:19 08:49:56 15° 100° (E) 08:52:33 437.305
HO-68 26 May 08:48:48 08:55:54 63° 103° (ESE) 09:02:59 435.675
GONETS M04 26 May 08:57:28 09:05:32 41° 78° (ENE) 09:13:33
CANX-2 26 May 08:58:20 09:02:37 82° 283° (WNW) 09:06:55 2200.000
SEEDS 26 May 09:04:23 09:08:38 71° 100° (E) 09:12:52 437.485
PRISM 26 May 09:06:18 09:10:09 38° 261° (W) 09:14:03 437.425
PCSat 26 May 09:16:34 09:21:18 32° 108° (ESE) 09:26:03 145.827
Oscar 11 26 May 09:23:57 09:27:23 23° 96° (E) 09:30:48 145.826/435.025
CUTE 1.7 + AOD 2 26 May 09:26:08 09:30:10 41° 285° (WNW) 09:34:11 437.475
DOVE 4 26 May 09:30:06 09:30:44 10° 294° (WNW) 09:31:22 437.250
JUGNU 26 May 09:30:15 09:35:19 29° 184° (S) 09:40:22 437.505
SRMSAT 26 May 09:32:10 09:36:59 25° 172° (S) 09:41:47 437.500
CUBEBUG 2 26 May 09:32:32 09:36:39 62° 101° (E) 09:40:51 437.445
ZACube-1 26 May 09:34:42 09:38:15 26° 97° (E) 09:41:50 437.345
UNISAT 6 26 May 09:38:14 09:40:58 16° 70° (ENE) 09:43:39 437.425
AUBIESAT-1 26 May 09:44:02 09:46:20 18° 292° (WNW) 09:48:37 437.475
TIGRISAT 26 May 09:45:57 09:49:02 19° 71° (ENE) 09:52:04 435.000
M-CUBED/EXP-1 PRIME 26 May 09:50:18 09:51:29 12° 294° (WNW) 09:52:41 437.505
COMPASS 1 26 May 09:53:48 09:57:43 38° 286° (WNW) 10:01:38 437.405
AIST 1 26 May 09:54:21 09:57:25 19° 271° (W) 10:00:26
Cosmos 2499 26 May 09:57:34 10:06:11 64° 82° (E) 10:14:57 435.465 / 435.565
AAUSAT CUBESAT 2 26 May 09:57:52 10:01:52 43° 285° (WNW) 10:05:50 437.432
UWE-3 26 May 10:04:30 10:08:40 77° 284° (WNW) 10:12:56 435.000/436.395/437.385
SO-50 26 May 10:08:51 10:13:21 49° 60° (ENE) 10:17:42 436.795
CINEMA 3 26 May 10:11:24 10:12:54 12° 292° (WNW) 10:14:23 145.822/145.860
FUNcube-1 26 May 10:13:07 10:17:19 79° 102° (ESE) 10:21:35 145.935
ANTELSAT 26 May 10:17:47 10:22:02 49° 75° (ENE) 10:26:14 437.575/2403.000
O/OREOS (USA 219) 26 May 10:24:46 10:28:58 36° 292° (WNW) 10:33:10 437.305
HO-68 26 May 10:38:03 10:42:58 20° 297° (WNW) 10:47:53 435.675
DELFI C3 26 May 10:40:48 10:44:51 84° 282° (WNW) 10:48:52 145.870
DUCHIFAT 1 26 May 10:42:16 10:44:00 12° 68° (ENE) 10:45:45 145.980
GONETS M04 26 May 10:54:32 11:02:02 34° 273° (W) 11:09:33
Oscar 11 26 May 10:59:58 11:03:21 23° 289° (WNW) 11:06:45 145.826/435.025
PCSat 26 May 11:00:05 11:04:37 27° 302° (WNW) 11:09:11 145.827
BUGSAT 1 26 May 11:07:36 11:08:39 11° 68° (ENE) 11:09:42 437.445
ZACube-1 26 May 11:11:25 11:14:19 18° 289° (WNW) 11:17:15 437.345
UNISAT 6 26 May 11:13:24 11:17:22 32° 261° (W) 11:21:18 437.425
POPSAT HIP 1 26 May 11:16:12 11:20:07 37° 73° (ENE) 11:24:01 437.405
BEESAT 3 26 May 11:16:28 11:20:07 38° 113° (ESE) 11:23:47 437.485
QB50P1 26 May 11:16:44 11:20:40 38° 74° (ENE) 11:24:35 145.935-145.965
QB50P2 26 May 11:18:23 11:22:24 42° 74° (ENE) 11:26:25 145.880/145.840
JUGNU 26 May 11:19:37 11:23:49 20° 194° (SSW) 11:28:00 437.505
SRMSAT 26 May 11:20:37 11:25:40 29° 182° (S) 11:30:43 437.500
POLYITAN 1 26 May 11:20:49 11:24:51 43° 74° (ENE) 11:28:53 437.675
TIGRISAT 26 May 11:21:43 11:25:30 28° 262° (W) 11:29:13 435.000
HUMSAT D 26 May 11:31:59 11:35:58 46° 285° (WNW) 11:39:59 437.325/437.525
DANDE 26 May 11:32:24 11:34:34 13° 79° (E) 11:36:58 436.750
NANOSAT C BR1 26 May 11:35:45 11:39:56 65° 76° (ENE) 11:44:08 145.865
50 SAT 26 May 11:43:01 11:45:53 21° 97° (E) 11:48:45 437.505
CUSAT 1 26 May 11:47:58 11:53:28 55° 92° (E) 12:00:27 437.405
SO-50 26 May 11:51:30 11:53:17 12° 253° (WSW) 11:55:04 436.795
Cosmos 2499 26 May 11:52:17 11:58:34 23° 276° (W) 12:04:58 435.465 / 435.565
AISAT 26 May 11:52:22 11:56:08 27° 98° (E) 11:59:53 437.250
ANTELSAT 26 May 11:58:31 11:58:54 10° 266° (W) 11:59:18 437.575/2403.000
UKube-1 26 May 12:08:34 12:12:12 26° 98° (E) 12:15:49 .
DUCHIFAT 1 26 May 12:15:19 12:19:18 40° 261° (W) 12:23:16 145.980
BEESAT 2 26 May 12:16:00 12:19:56 68° 298° (WNW) 12:23:54 435.950
ESTCUBE 1 26 May 12:23:54 12:28:27 79° 284° (WNW) 12:32:58 437.505/2401.250
JAS-2 26 May 12:28:43 12:35:21 44° 70° (ENE) 12:42:34 435.910
BUGSAT 1 26 May 12:39:30 12:43:34 46° 260° (W) 12:47:37 437.445
CUBEBUG 1 26 May 12:49:18 12:53:35 56° 285° (WNW) 12:57:49 437.445
DX 1 26 May 12:51:58 12:56:17 67° 285° (WNW) 13:00:35 434.975-435.025
VELOX 1 26 May 12:52:21 12:56:40 54° 285° (WNW) 13:00:57 145.980
POPSAT HIP 1 26 May 12:53:58 12:55:58 13° 266° (W) 12:57:57 437.405
QB50P1 26 May 12:54:40 12:56:31 13° 266° (W) 12:58:22 145.935-145.965
BEESAT 3 26 May 12:55:58 12:57:55 13° 307° (NW) 12:59:54 437.485
QB50P2 26 May 12:57:04 12:58:20 11° 266° (W) 12:59:36 145.880/145.840
POLYITAN 1 26 May 12:59:44 13:00:48 11° 266° (W) 13:01:51 437.675
SRMSAT 26 May 13:09:54 13:14:20 22° 192° (SSW) 13:18:45 437.500
DANDE 26 May 13:11:28 13:16:09 57° 282° (WNW) 13:22:30 436.750
50 SAT 26 May 13:16:55 13:19:25 17° 289° (WNW) 13:21:56 437.505
SPROUT 26 May 13:22:53 13:27:05 62° 284° (WNW) 13:31:15 437.525
Oscar 19 26 May 13:27:35 13:32:43 65° 75° (ENE) 13:37:51 437.125/150
AISAT 26 May 13:29:15 13:32:24 19° 290° (WNW) 13:35:30 437.250
CUSAT 1 26 May 13:31:58 13:36:13 19° 293° (WNW) 13:41:07 437.405
Gurwin Techsat 1B 26 May 13:39:32 13:44:11 32° 71° (ENE) 13:48:52 435.225
UKube-1 26 May 13:44:56 13:48:02 20° 290° (WNW) 13:51:07 .
TISAT 1 26 May 13:52:16 13:56:26 70° 101° (ESE) 14:00:34 437.305
SWISSCUBE 26 May 13:55:56 13:57:54 12° 94° (E) 13:59:51 437.505
ITUPSAT 1 26 May 14:01:18 14:03:17 12° 94° (E) 14:05:16 437.325
ITAMSAT 1 26 May 14:07:29 14:11:23 22° 69° (ENE) 14:15:17 435.822/435.867
AIST 2 26 May 14:13:43 14:17:47 60° 298° (WNW) 14:21:53 435.215
Cosmos 2491 26 May 14:13:55 14:18:44 16° 69° (ENE) 14:23:32 435.465 / 435.565
JAS-2 26 May 14:14:22 14:20:23 30° 266° (W) 14:26:54 435.910
BEESAT 26 May 14:24:06 14:27:59 24° 97° (E) 14:31:50 436.000
AO-7 26 May 14:41:49 14:48:37 29° 63° (ENE) 14:55:26 29.400- 29.500
SRMSAT 26 May 15:01:47 15:02:54 11° 200° (SSW) 15:04:01 437.500
Oscar 19 26 May 15:11:08 15:12:21 11° 267° (W) 15:13:33 437.125/150
Gurwin Techsat 1B 26 May 15:19:53 15:24:04 24° 264° (W) 15:28:17 435.225
SWISSCUBE 26 May 15:31:15 15:35:52 50° 286° (WNW) 15:40:29 437.505
AO-85 26 May 15:35:13 15:39:25 37° 58° (ENE) 15:43:16 145.980
ITUPSAT 1 26 May 15:36:40 15:41:18 50° 286° (WNW) 15:45:56 437.325
KKS-1 26 May 15:41:57 15:44:57 18° 96° (E) 15:47:55 437.445
ITAMSAT 1 26 May 15:45:57 15:50:35 33° 262° (W) 15:55:15 435.822/435.867
MOZHAYETS 4 26 May 15:47:52 15:50:41 16° 94° (E) 15:53:31
YUBILEINY 26 May 16:01:13 16:09:25 48° 89° (E) 16:17:36 435.215
HORYU 2 26 May 16:01:32 16:04:18 17° 69° (ENE) 16:07:05 437.375
BEESAT 26 May 16:01:42 16:05:38 26° 289° (WNW) 16:09:34 436.000
Cosmos 2491 26 May 16:07:42 16:16:27 82° 267° (W) 16:25:09 435.465 / 435.565
STARS 26 May 16:20:42 16:24:17 24° 97° (E) 16:27:50 437.465
AO-7 26 May 16:32:57 16:40:55 52° 257° (WSW) 16:48:58 29.400- 29.500
CUBESAT XI-V 26 May 17:10:19 17:12:29 13° 93° (E) 17:14:39 437.345
RS-15 26 May 17:13:32 17:24:30 67° 111° (ESE) 17:36:05 29.354- 29.394
CUTE-I 26 May 17:14:17 17:16:36 13° 65° (ENE) 17:18:56 437.470
AO-85 26 May 17:17:11 17:19:22 14° 254° (WSW) 17:21:28 145.980
KKS-1 26 May 17:17:39 17:21:29 30° 288° (WNW) 17:25:18 437.445
BRITE-PL 26 May 17:23:15 17:27:12 20° 68° (ENE) 17:31:11 437.365/2234.400
MOZHAYETS 4 26 May 17:23:40 17:27:53 36° 287° (WNW) 17:32:07
HORYU 2 26 May 17:36:35 17:40:33 33° 261° (W) 17:44:33 437.375
LilacSat-2 26 May 17:48:11 17:50:58 19° 72° (ENE) 17:53:44 437.200
Cosmos 2504 26 May 17:50:17 17:57:19 67° 93° (E) 18:04:41 435.465 / 435.565
NOAA 18 26 May 17:52:48 17:57:56 43° 72° (ENE) 18:03:04 137.9125
GOMX 1 26 May 17:54:32 17:58:15 19° 69° (ENE) 18:01:56 467.674
STARS 26 May 17:57:10 18:00:27 21° 290° (WNW) 18:03:44 437.465
YUBILEINY 26 May 17:59:04 18:06:19 29° 285° (WNW) 18:13:37 435.215
NOAA 15 26 May 18:03:43 18:08:57 67° 75° (ENE) 18:14:14 137.62
Cubesat XI-IV 26 May 18:04:27 18:09:26 43° 72° (ENE) 18:14:27 437.490
Cosmos 2491 26 May 18:09:57 18:11:50 11° 282° (WNW) 18:13:44 435.465 / 435.565
CUBESAT XI-V 26 May 18:45:32 18:50:01 45° 286° (WNW) 18:54:28 437.345
DOVE 4 26 May 18:48:28 18:53:02 30° 72° (ENE) 18:57:29 437.250
CUTE-I 26 May 18:50:50 18:56:03 62° 258° (WSW) 19:01:19 437.470
AUBIESAT-1 26 May 18:52:06 18:53:23 11° 65° (ENE) 18:54:39 437.475
M-CUBED/EXP-1 PRIME 26 May 18:56:13 18:58:56 17° 67° (ENE) 19:01:34 437.505
BRITE-PL 26 May 18:59:55 19:05:11 46° 262° (W) 19:10:38 437.365/2234.400
O/OREOS (USA 219) 26 May 19:03:02 19:04:49 12° 61° (ENE) 19:06:36 437.305
HO-68 26 May 19:12:21 19:18:02 26° 65° (ENE) 19:23:43 435.675
LilacSat-2 26 May 19:22:19 19:25:07 19° 264° (W) 19:27:54 437.200
RS-15 26 May 19:27:57 19:37:42 32° 313° (NW) 19:48:00 29.354- 29.394
CINEMA 3 26 May 19:28:33 19:32:11 22° 72° (ENE) 19:35:44 145.822/145.860
GOMX 1 26 May 19:30:39 19:35:53 46° 261° (W) 19:41:08 467.674
NOAA 18 26 May 19:35:01 19:38:42 18° 264° (W) 19:42:23 137.9125
STRAND 1 26 May 19:35:42 19:40:29 37° 99° (E) 19:45:14 437.568
CANX-2 26 May 19:45:42 19:49:27 32° 73° (ENE) 19:53:12 2200.000
Cubesat XI-IV 26 May 19:46:13 19:49:37 17° 265° (W) 19:53:02 437.490
Cosmos 2504 26 May 19:47:12 19:51:19 16° 290° (WNW) 19:55:34 435.465 / 435.565
NOAA 15 26 May 19:47:57 19:49:04 11° 267° (W) 19:50:11 137.62
SEEDS 26 May 19:51:14 19:54:28 23° 72° (ENE) 19:57:45 437.485
PCSat 26 May 19:52:27 19:57:53 76° 65° (ENE) 20:03:16 145.827
CUTE 1.7 + AOD 2 26 May 20:12:44 20:16:51 63° 77° (ENE) 20:21:01 437.475
AUBIESAT-1 26 May 20:23:24 20:27:32 46° 255° (WSW) 20:31:25 437.475
CUBEBUG 2 26 May 20:25:28 20:29:10 26° 73° (ENE) 20:32:46 437.445
DOVE 4 26 May 20:26:17 20:30:35 25° 264° (W) 20:34:50 437.250
ISS 26 May 20:26:50 20:29:21 21° 128° (SE) 20:31:52 145.825
ZACube-1 26 May 20:27:43 20:28:42 11° 68° (ENE) 20:29:40 437.345
M-CUBED/EXP-1 PRIME 26 May 20:29:20 20:33:15 32° 256° (WSW) 20:36:57 437.505
COMPASS 1 26 May 20:38:26 20:42:31 63° 77° (ENE) 20:46:37 437.405
O/OREOS (USA 219) 26 May 20:40:09 20:44:26 46° 255° (WSW) 20:48:41 437.305
AIST 1 26 May 20:40:17 20:43:22 19° 88° (E) 20:46:29
BEESAT 2 26 May 20:40:56 20:42:46 13° 53° (NE) 20:44:35 435.950
AAUSAT CUBESAT 2 26 May 20:42:08 20:46:07 54° 76° (ENE) 20:50:10 437.432
PRISM 26 May 20:53:13 20:57:11 41° 100° (E) 21:01:06 437.425
UWE-3 26 May 20:55:54 20:59:59 40° 75° (ENE) 21:03:58 435.000/436.395/437.385
HO-68 26 May 20:58:31 21:05:20 48° 259° (W) 21:12:11 435.675
FUNcube-1 26 May 21:03:29 21:07:09 29° 73° (ENE) 21:10:46 145.935
CINEMA 3 26 May 21:04:56 21:09:07 29° 262° (W) 21:13:11 145.822/145.860
